Location: Praha
(50.0830°N, 14.4670°E)
Time: 05:49:26
(UTC+02:00)

ISS - Pass Details

Date: 03 April 2020
Orbit: 417 x 423 km, 51.6° (Epoch: 29 March)

Event Time Altitude Azimuth Distance (km) Brightness Sun altitude
Rises 21:00:01 0° 285° (WNW) 2,362 1.9 -13.3°
Reaches altitude 10° 21:02:23 10° 270° (W) 1,495 0.1 -13.7°
Maximum altitude 21:05:05 23° 217° (SW) 948 -1.9 -14.0°
Enters shadow 21:06:59 14° 173° (S) 1,248 -1.7 -14.3°
